[Iaude] MPEC B61: 2017 BP3 [a=2.16,e=0.52,i=5.7,H=23.4]

mpec at si.edu mpec at si.edu
Wed Jan 25 06:57:24 EST 2017


M.P.E.C. 2017-B61                                Issued 2017 Jan. 25, 11:53 UT
 
     The Minor Planet Electronic Circulars contain information on unusual
         minor planets and routine data on comets.  They are published
    on behalf of Division F of the International Astronomical Union by the
          Minor Planet Center, Smithsonian Astrophysical Observatory,
                          Cambridge, MA 02138, U.S.A.

             Prepared using the Tamkin Foundation Computer Network

                              MPC at CFA.HARVARD.EDU
            URL http://www.minorplanetcenter.net/    ISSN 1523-6714


                                   2017 BP3
 
Observations:
     K17B03P* C2017 01 23.40739 11 22 14.92 -01 40 38.5          20.8 rREB061G45
     K17B03P  C2017 01 23.41802 11 22 19.77 -01 42 03.3          20.7 rREB061G45
     K17B03P  C2017 01 23.42274 11 22 21.87 -01 42 40.9          20.5 rREB061G45
     K17B03P  C2017 01 23.42689 11 22 23.78 -01 43 14.1          20.5 rREB061G45
     K17B03P KC2017 01 24.27480611 29 16.68 -03 34 03.8          20.0 GUEB061W85
     K17B03P KC2017 01 24.27825111 29 18.23 -03 34 31.2          19.8 GUEB061W85
     K17B03P KC2017 01 24.28169211 29 19.77 -03 34 58.7          19.8 GUEB061W85
     K17B03P KC2017 01 24.28512011 29 21.32 -03 35 25.8          19.7 GUEB061W85
     K17B03P KC2017 01 25.03063 11 35 19.69 -05 15 20.2          19.5 RoEB061K88
     K17B03P KC2017 01 25.03463 11 35 21.53 -05 15 51.6          19.4 RoEB061K88
     K17B03P KC2017 01 25.03524 11 35 23.21 -05 15 53.6          19.5 VqEB061I93
     K17B03P KC2017 01 25.03863 11 35 23.31 -05 16 23.4          19.4 RoEB061K88
     K17B03P KC2017 01 25.05144 11 35 30.65 -05 17 59.2          20.0 VqEB061I93
     K17B03P KC2017 01 25.05343 11 35 30.86 -05 18 15.8          19.5  tEB061104
     K17B03P KC2017 01 25.06018 11 35 33.88 -05 19 09.7          19.6  tEB061104
     K17B03P KC2017 01 25.07606 11 35 41.06 -05 21 13.9          19.4  tEB061104
     K17B03P KC2017 01 25.11332 11 35 57.99 -05 26 07.4                UEB061204
     K17B03P KC2017 01 25.17405 11 36 25.40 -05 34 02.4          20   GUEB061204
 
Observer details:
104 San Marcello Pistoiese.  Observers P. Bacci, M. Maestripieri.  Measurers
    P. Bacci, L. Tesi, G. Fagioli.  0.60-m f/4 reflector + CCD.
204 Schiaparelli Observatory.  Observer L. Buzzi.  0.60-m f/4.64 reflector
    + CCD.
G45 Space Surveillance Telescope, Atom Site.  Observers M. Blythe, R. Brungard,
    P. Festler, T. McVey, J. Paige, G. Spitz.  Measurers M. Cornell, A. Klein,
    J. Ruprecht, G. Ushomirsky, J. Varey, D. Woods.  3.5-m f/1 reflector + CCD.
I93 St Pardon de Conques.  Observer F. Losse.  0.40-m f/3.7 reflector + CCD.
K88 GINOP-KHK, Piszkesteto.  Observer K. Sarneczky.  0.60-m Schmidt + CCD.
W85 Cerro Tololo-LCOGT A.  Observers T. Lister, S. Greenstreet, E. Gomez.
    Measurer T. Lister.  1.0-m f/8 Ritchey-Chretien + CCD.
 
Orbital elements:
2017 BP3                                                 Earth MOID = 0.0564 AU
Epoch 2017 Feb. 16.0 TT = JDT 2457800.5                 MPC
M   2.78060              (2000.0)            P               Q
n   0.31135635     Peri.  201.56515     -0.80772295     -0.58350767
a   2.1559114      Node   302.45989     +0.55446625     -0.70325507
e   0.5205235      Incl.    5.73229     +0.20037668     -0.40614174
P   3.17           H   23.4           G   0.15           U   6
Residuals in seconds of arc
170123 G45  0.4-  0.1+    170124 W85  0.5-  0.1+    170125 I93  0.4-  1.0+
170123 G45  0.1-  0.2+    170124 W85  0.4-  0.2+    170125 104  0.5+  0.1+
170123 G45  0.8-  0.3+    170125 K88  0.8-  0.8+    170125 104  0.0   0.8-
170123 G45  0.4-  0.2+    170125 K88  0.4-  0.8+    170125 104  0.1+  0.3-
170124 W85  0.3-  0.3+    170125 I93  1.2-  0.8-    170125 204  0.3-  0.2+
170124 W85  0.3-  0.3+    170125 K88  1.0-  0.4+    170125 204  0.9-  0.4+

Ephemeris:
2017 BP3                 a,e,i = 2.16, 0.52, 6                   q = 1.0337
Date    TT    R. A. (2000) Decl.     Delta      r     Elong.  Phase     V
2016 12 26    08 12 23.8 +35 01 49   0.1894  1.1552   152.8    22.9    21.2
...
2017 01 10    09 36 52.1 +23 39 40   0.1193  1.0881   149.7    27.1    20.2
...
2017 01 18    10 38 06.4 +10 03 46   0.09899 1.0621   140.5    36.1    20.0
...
2017 01 24    11 27 01.5 -02 58 18   0.09461 1.0478   130.1    46.0    20.1
2017 01 25    11 35 03.3 -05 10 01   0.09483 1.0459   128.3    47.6    20.2
2017 01 26    11 42 59.6 -07 19 39   0.09531 1.0441   126.5    49.3    20.2
...
2017 02 01    12 27 44.4 -18 56 33   0.1030  1.0364   117.1    57.8    20.6
...
2017 02 09    13 17 00.6 -29 43 11   0.1222  1.0340   109.6    64.0    21.2
...
2017 02 24    14 16 18.7 -39 23 18   0.1681  1.0540   108.1    63.2    21.9

A. U. Tomatic                (C) Copyright 2017 MPC           M.P.E.C. 2017-B61




More information about the Iaude mailing list